AEE57M LGAV-EDDM

Flight info

Callsign AEE57M
Flight time 2h 9m
Altitude 36000
Route KOR UL613 XANIS DCT DIMIS DCT PETAK DCT GLOMY DCT ELTIB DCT GORPA DCT BERTA DCT RASTA DCT REDBU Q112 NAPSA NAPSA4A
Aircraft A320/M-SDE3FGHIRWY/LB1

Departure

Time 2026-05-06 11:01
Airport Athens Eleftherios Venizelos International Airport (LGAV)

Arrival

Time 2026-05-06 13:10
Airport Munich Airport (EDDM)
Time Latitude Longitude Altitude Speed Heading
2026-05-06 10:49 37.93415 23.94648 302 ft 0 kts 308°
2026-05-06 10:54 37.93409 23.94658 304 ft 4 kts 308°
2026-05-06 10:54 37.93395 23.94680 301 ft 2 kts 308°
2026-05-06 10:54 37.93377 23.94704 301 ft 4 kts 330°
2026-05-06 10:55 37.93352 23.94713 301 ft 4 kts
2026-05-06 10:55 37.93329 23.94701 301 ft 3 kts 36°
2026-05-06 10:55 37.93314 23.94688 301 ft 0 kts 36°
2026-05-06 10:58 37.93321 23.94694 301 ft 2 kts 36°
2026-05-06 10:58 37.93337 23.94733 301 ft 7 kts 89°
2026-05-06 10:58 37.93302 23.94783 301 ft 9 kts 160°
2026-05-06 10:58 37.93239 23.94755 302 ft 11 kts 232°
2026-05-06 10:59 37.93179 23.94690 303 ft 12 kts 217°
2026-05-06 10:59 37.93091 23.94634 302 ft 16 kts 168°
2026-05-06 10:59 37.93076 23.94756 301 ft 17 kts 66°
2026-05-06 10:59 37.93130 23.94911 299 ft 21 kts 66°
2026-05-06 11:00 37.93169 23.95089 294 ft 11 kts 79°
2026-05-06 11:00 37.93236 23.95164 292 ft 16 kts 35°
2026-05-06 11:00 37.93478 23.95395 284 ft 79 kts 37°
2026-05-06 11:00 37.94069 23.95956 285 ft 133 kts 37°
2026-05-06 11:01 37.94910 23.96740 547 ft 156 kts 39°
2026-05-06 11:01 37.95810 23.97555 1127 ft 161 kts 39°
2026-05-06 11:01 37.96737 23.98392 1749 ft 165 kts 37°
2026-05-06 11:01 37.97652 23.99267 2382 ft 164 kts 39°
2026-05-06 11:02 37.98670 23.99872 2944 ft 164 kts
2026-05-06 11:02 37.99811 23.99931 3492 ft 166 kts 357°
2026-05-06 11:02 38.01041 23.99860 3750 ft 188 kts 355°
2026-05-06 11:02 38.02405 23.99758 3952 ft 210 kts 355°
2026-05-06 11:03 38.03965 23.99638 4253 ft 236 kts 355°
2026-05-06 11:03 38.05691 23.99508 4679 ft 260 kts 355°
2026-05-06 11:03 38.07468 23.99004 5363 ft 266 kts 332°
2026-05-06 11:03 38.08962 23.97620 6195 ft 268 kts 317°
2026-05-06 11:04 38.10350 23.96005 7043 ft 272 kts 316°
2026-05-06 11:04 38.11740 23.94367 7919 ft 273 kts 316°
2026-05-06 11:04 38.13119 23.92737 8751 ft 276 kts 317°
2026-05-06 11:04 38.14533 23.91069 9582 ft 279 kts 317°
2026-05-06 11:05 38.15971 23.89377 10330 ft 285 kts 317°
2026-05-06 11:05 38.17490 23.87596 10552 ft 308 kts 317°
2026-05-06 11:05 38.19130 23.85669 10724 ft 331 kts 317°
2026-05-06 11:05 38.20847 23.83647 11169 ft 341 kts 317°
2026-05-06 11:06 38.22600 23.81578 11789 ft 346 kts 317°
2026-05-06 11:06 38.24370 23.79490 12479 ft 348 kts 317°
2026-05-06 11:06 38.26134 23.77416 13175 ft 351 kts 317°
2026-05-06 11:06 38.27935 23.75298 13877 ft 353 kts 317°
2026-05-06 11:07 38.29746 23.73163 14493 ft 355 kts 317°
2026-05-06 11:07 38.31566 23.71017 15107 ft 357 kts 317°
2026-05-06 11:07 38.33391 23.68866 15702 ft 358 kts 317°
2026-05-06 11:07 38.35224 23.66703 16302 ft 360 kts 317°
2026-05-06 11:08 38.37062 23.64534 16893 ft 362 kts 317°
2026-05-06 11:08 38.38912 23.62342 17497 ft 363 kts 317°
2026-05-06 11:08 38.40749 23.60162 18100 ft 365 kts 317°
2026-05-06 11:08 38.42617 23.57942 18659 ft 367 kts 317°
2026-05-06 11:09 38.44489 23.55715 19182 ft 369 kts 317°
2026-05-06 11:09 38.46377 23.53471 19703 ft 371 kts 317°
2026-05-06 11:09 38.48274 23.51216 20211 ft 374 kts 317°
2026-05-06 11:09 38.50188 23.48943 20729 ft 376 kts 317°
2026-05-06 11:10 38.52107 23.46668 21211 ft 378 kts 317°
2026-05-06 11:10 38.54044 23.44367 21676 ft 380 kts 317°
2026-05-06 11:10 38.55987 23.42054 22131 ft 383 kts 317°
2026-05-06 11:10 38.57918 23.39752 22587 ft 384 kts 317°
2026-05-06 11:11 38.59880 23.37407 23042 ft 387 kts 317°
2026-05-06 11:11 38.61852 23.35046 23495 ft 389 kts 317°
2026-05-06 11:11 38.63830 23.32677 23893 ft 391 kts 317°
2026-05-06 11:11 38.65821 23.30290 24262 ft 393 kts 317°
2026-05-06 11:12 38.67797 23.27923 24619 ft 395 kts 317°
2026-05-06 11:12 38.69811 23.25513 24963 ft 397 kts 317°
2026-05-06 11:12 38.71835 23.23094 25309 ft 399 kts 317°
2026-05-06 11:12 38.73867 23.20662 25644 ft 401 kts 317°
2026-05-06 11:13 38.75911 23.18211 26001 ft 403 kts 317°
2026-05-06 11:13 38.77961 23.15748 26349 ft 405 kts 317°
2026-05-06 11:13 38.80021 23.13268 26700 ft 407 kts 317°
2026-05-06 11:13 38.82068 23.10798 27049 ft 409 kts 317°
2026-05-06 11:14 38.84144 23.08287 27377 ft 412 kts 316°
2026-05-06 11:14 38.86238 23.05754 27674 ft 414 kts 316°
2026-05-06 11:14 38.88340 23.03213 28019 ft 416 kts 316°
2026-05-06 11:14 38.90458 23.00656 28340 ft 418 kts 316°
2026-05-06 11:15 38.92583 22.98090 28820 ft 417 kts 316°
2026-05-06 11:15 38.94693 22.95542 29289 ft 416 kts 316°
2026-05-06 11:15 38.96796 22.92997 29761 ft 415 kts 316°
2026-05-06 11:15 38.98866 22.90488 30209 ft 414 kts 316°
2026-05-06 11:16 39.00961 22.87948 30629 ft 413 kts 316°
2026-05-06 11:16 39.03048 22.85413 31036 ft 412 kts 316°
2026-05-06 11:16 39.05131 22.82878 31450 ft 411 kts 316°
2026-05-06 11:16 39.07207 22.80346 31872 ft 410 kts 316°
2026-05-06 11:17 39.09273 22.77828 32317 ft 408 kts 315°
2026-05-06 11:17 39.10642 22.76159 32566 ft 409 kts 315°
2026-05-06 11:17 39.12710 22.73641 32924 ft 409 kts 315°
2026-05-06 11:17 39.14772 22.71128 33305 ft 409 kts 315°
2026-05-06 11:18 39.17504 22.67788 33856 ft 408 kts 315°
2026-05-06 11:18 39.19555 22.65279 34238 ft 407 kts 315°
2026-05-06 11:18 39.20942 22.63581 34472 ft 406 kts 315°
2026-05-06 11:18 39.22991 22.61073 34815 ft 405 kts 315°
2026-05-06 11:19 39.25006 22.58607 35156 ft 404 kts 315°
2026-05-06 11:19 39.27043 22.56110 35488 ft 403 kts 315°
2026-05-06 11:19 39.29066 22.53627 35821 ft 402 kts 315°
2026-05-06 11:19 39.31094 22.51136 36026 ft 402 kts 315°
2026-05-06 11:20 39.33828 22.47771 36060 ft 408 kts 315°
2026-05-06 11:20 39.37256 22.43539 36051 ft 411 kts 315°
2026-05-06 11:21 39.41412 22.38412 36056 ft 413 kts 315°
2026-05-06 11:21 39.45539 22.33315 36054 ft 413 kts 315°
2026-05-06 11:22 39.49704 22.28160 36048 ft 413 kts 315°
2026-05-06 11:22 39.53867 22.23004 36051 ft 414 kts 315°
2026-05-06 11:23 39.58003 22.17863 36062 ft 414 kts 314°
2026-05-06 11:23 39.62156 22.12694 36062 ft 414 kts 314°
2026-05-06 11:24 39.66310 22.07509 36052 ft 414 kts 314°
2026-05-06 11:24 39.70465 22.02323 36057 ft 415 kts 314°
2026-05-06 11:25 39.74631 21.97127 36056 ft 415 kts 314°
2026-05-06 11:25 39.78791 21.91920 36057 ft 415 kts 314°
2026-05-06 11:26 39.82918 21.86732 36060 ft 415 kts 314°
2026-05-06 11:26 39.87082 21.81494 36059 ft 415 kts 314°
2026-05-06 11:27 39.91222 21.76282 36065 ft 416 kts 314°
2026-05-06 11:27 39.95382 21.71027 36058 ft 416 kts 314°
2026-05-06 11:28 39.99548 21.65770 36059 ft 417 kts 314°
2026-05-06 11:28 40.03721 21.60495 36060 ft 417 kts 314°
2026-05-06 11:29 40.07855 21.55242 36058 ft 417 kts 314°
2026-05-06 11:29 40.12011 21.49941 36066 ft 417 kts 314°
2026-05-06 11:30 40.16171 21.44641 36077 ft 417 kts 314°
2026-05-06 11:30 40.20330 21.39340 36082 ft 417 kts 314°
2026-05-06 11:31 40.24456 21.34067 36079 ft 417 kts 314°
2026-05-06 11:31 40.28603 21.28755 36078 ft 417 kts 314°
2026-05-06 11:32 40.32756 21.23435 36088 ft 417 kts 314°
2026-05-06 11:32 40.36893 21.18120 36086 ft 417 kts 314°
2026-05-06 11:33 40.41032 21.12783 36079 ft 417 kts 313°
2026-05-06 11:33 40.45166 21.07451 36082 ft 417 kts 313°
2026-05-06 11:34 40.49286 21.02139 36086 ft 417 kts 313°
2026-05-06 11:34 40.53430 20.96781 36088 ft 418 kts 313°
2026-05-06 11:35 40.57563 20.91420 36082 ft 417 kts 313°
2026-05-06 11:35 40.61702 20.86039 36086 ft 418 kts 313°
2026-05-06 11:36 40.65837 20.80659 36088 ft 418 kts 313°
2026-05-06 11:36 40.69971 20.75263 36086 ft 418 kts 313°
2026-05-06 11:37 40.74078 20.69898 36091 ft 419 kts 313°
2026-05-06 11:37 40.78228 20.64480 36091 ft 419 kts 313°
2026-05-06 11:38 40.82355 20.59058 36099 ft 419 kts 313°
2026-05-06 11:38 40.86484 20.53628 36095 ft 419 kts 313°
2026-05-06 11:39 40.90622 20.48184 36095 ft 419 kts 313°
2026-05-06 11:39 40.94735 20.42764 36092 ft 420 kts 313°
2026-05-06 11:40 40.98882 20.37293 36079 ft 421 kts 312°
2026-05-06 11:40 41.03039 20.31794 36084 ft 422 kts 312°
2026-05-06 11:41 41.07190 20.26289 36100 ft 422 kts 312°
2026-05-06 11:41 41.11320 20.20801 36102 ft 423 kts 312°
2026-05-06 11:42 41.15471 20.15268 36093 ft 422 kts 312°
2026-05-06 11:42 41.19619 20.09743 36094 ft 423 kts 312°
2026-05-06 11:43 41.23781 20.04194 36103 ft 423 kts 312°
2026-05-06 11:43 41.27931 19.98638 36104 ft 424 kts 312°
2026-05-06 11:44 41.34128 19.90304 36105 ft 424 kts 312°
2026-05-06 11:44 41.38279 19.84726 36105 ft 424 kts 312°
2026-05-06 11:45 41.42431 19.79139 36108 ft 424 kts 312°
2026-05-06 11:45 41.46577 19.73533 36104 ft 425 kts 311°
2026-05-06 11:46 41.50730 19.67918 36090 ft 425 kts 312°
2026-05-06 11:46 41.54885 19.62292 36104 ft 425 kts 311°
2026-05-06 11:47 41.59004 19.56693 36105 ft 425 kts 311°
2026-05-06 11:47 41.63152 19.51047 36104 ft 425 kts 311°
2026-05-06 11:48 41.67295 19.45404 36104 ft 425 kts 311°
2026-05-06 11:48 41.71440 19.39747 36099 ft 425 kts 311°
2026-05-06 11:49 41.75574 19.34077 36098 ft 426 kts 311°
2026-05-06 11:49 41.80134 19.29053 36112 ft 430 kts 323°
2026-05-06 11:50 41.85125 19.24608 36111 ft 430 kts 323°
2026-05-06 11:50 41.90119 19.20141 36109 ft 431 kts 323°
2026-05-06 11:51 41.95100 19.15667 36106 ft 431 kts 323°
2026-05-06 11:51 42.00058 19.11206 36109 ft 431 kts 322°
2026-05-06 11:52 42.05040 19.06716 36115 ft 431 kts 322°
2026-05-06 11:52 42.10023 19.02209 36111 ft 431 kts 322°
2026-05-06 11:53 42.15008 18.97685 36108 ft 431 kts 322°
2026-05-06 11:53 42.19997 18.93166 36098 ft 432 kts 322°
2026-05-06 11:54 42.24987 18.88645 36101 ft 432 kts 322°
2026-05-06 11:54 42.29966 18.84112 36100 ft 432 kts 322°
2026-05-06 11:55 42.34915 18.79593 36099 ft 432 kts 322°
2026-05-06 11:55 42.39900 18.75035 36105 ft 432 kts 322°
2026-05-06 11:56 42.44893 18.70468 36108 ft 432 kts 322°
2026-05-06 11:56 42.49856 18.65929 36112 ft 433 kts 322°
2026-05-06 11:57 42.54841 18.61342 36104 ft 433 kts 322°
2026-05-06 11:57 42.59828 18.56745 36101 ft 433 kts 322°
2026-05-06 11:58 42.64816 18.52142 36103 ft 433 kts 322°
2026-05-06 11:58 42.69805 18.47521 36104 ft 433 kts 322°
2026-05-06 11:59 42.74759 18.42927 36118 ft 433 kts 322°
2026-05-06 11:59 42.79734 18.38308 36104 ft 433 kts 322°
2026-05-06 12:00 42.84731 18.33677 36091 ft 434 kts 322°
2026-05-06 12:00 42.89721 18.29031 36084 ft 434 kts 322°
2026-05-06 12:01 42.94710 18.24368 36092 ft 434 kts 322°
2026-05-06 12:01 42.99699 18.19700 36087 ft 435 kts 322°
2026-05-06 12:02 43.04653 18.15045 36078 ft 434 kts 322°
2026-05-06 12:02 43.09669 18.10340 36062 ft 434 kts 322°
2026-05-06 12:03 43.14618 18.05689 36053 ft 434 kts 321°
2026-05-06 12:03 43.19604 18.00978 36051 ft 434 kts 322°
2026-05-06 12:04 43.24583 17.96273 36041 ft 434 kts 322°
2026-05-06 12:04 43.29559 17.91571 36038 ft 434 kts 322°
2026-05-06 12:05 43.34499 17.86889 36036 ft 434 kts 322°
2026-05-06 12:05 43.39472 17.82161 36037 ft 434 kts 322°
2026-05-06 12:06 43.44444 17.77418 36069 ft 434 kts 322°
2026-05-06 12:06 43.49378 17.72705 36064 ft 434 kts 322°
2026-05-06 12:07 43.54358 17.67942 36047 ft 435 kts 321°
2026-05-06 12:07 43.59230 17.63004 36047 ft 434 kts 318°
2026-05-06 12:08 43.63108 17.58610 36053 ft 434 kts 316°
2026-05-06 12:08 43.67721 17.53233 36041 ft 434 kts 317°
2026-05-06 12:09 43.72382 17.47904 36044 ft 435 kts 317°
2026-05-06 12:09 43.77075 17.42615 36047 ft 435 kts 317°
2026-05-06 12:10 43.81743 17.37355 36036 ft 436 kts 317°
2026-05-06 12:10 43.86447 17.32021 36031 ft 436 kts 317°
2026-05-06 12:11 43.91136 17.26692 36032 ft 436 kts 317°
2026-05-06 12:11 43.95828 17.21349 36028 ft 436 kts 317°
2026-05-06 12:12 44.00489 17.16030 36035 ft 436 kts 316°
2026-05-06 12:12 44.05173 17.10669 36027 ft 436 kts 316°
2026-05-06 12:13 44.09865 17.05292 36014 ft 437 kts 316°
2026-05-06 12:13 44.14550 16.99910 36022 ft 436 kts 315°
2026-05-06 12:14 44.19192 16.94570 36026 ft 435 kts 315°
2026-05-06 12:14 44.23866 16.89175 36008 ft 436 kts 316°
2026-05-06 12:15 44.28541 16.83755 35991 ft 436 kts 316°
2026-05-06 12:15 44.33423 16.78680 35985 ft 440 kts 321°
2026-05-06 12:16 44.38429 16.73845 35975 ft 440 kts 321°
2026-05-06 12:16 44.43468 16.68976 35993 ft 440 kts 320°
2026-05-06 12:17 44.48510 16.64083 35973 ft 440 kts 320°
2026-05-06 12:17 44.53508 16.59218 35973 ft 440 kts 320°
2026-05-06 12:18 44.58539 16.54309 35961 ft 440 kts 320°
2026-05-06 12:18 44.63565 16.49402 35966 ft 440 kts 320°
2026-05-06 12:19 44.68594 16.44478 35984 ft 440 kts 319°
2026-05-06 12:19 44.73616 16.39556 35977 ft 439 kts 319°
2026-05-06 12:20 44.78596 16.34657 35963 ft 439 kts 319°
2026-05-06 12:20 44.83612 16.29702 35962 ft 439 kts 319°
2026-05-06 12:21 44.88622 16.24754 35954 ft 439 kts 319°
2026-05-06 12:21 44.93593 16.19834 35981 ft 439 kts 319°
2026-05-06 12:22 44.98615 16.14853 35963 ft 439 kts 319°
2026-05-06 12:22 45.03588 16.09914 35967 ft 440 kts 319°
2026-05-06 12:23 45.08595 16.04926 35957 ft 440 kts 319°
2026-05-06 12:23 45.13593 15.99929 35957 ft 440 kts 319°
2026-05-06 12:24 45.18598 15.94919 35977 ft 440 kts 318°
2026-05-06 12:24 45.23607 15.89898 35959 ft 441 kts 318°
2026-05-06 12:25 45.28618 15.84864 35953 ft 441 kts 319°
2026-05-06 12:25 45.33597 15.79853 35954 ft 441 kts 319°
2026-05-06 12:26 45.38604 15.74792 35957 ft 441 kts 318°
2026-05-06 12:26 45.43603 15.69721 35976 ft 441 kts 318°
2026-05-06 12:27 45.48617 15.64641 35962 ft 441 kts 318°
2026-05-06 12:27 45.53597 15.59586 35962 ft 442 kts 319°
2026-05-06 12:28 45.58602 15.54503 35961 ft 441 kts 319°
2026-05-06 12:28 45.63265 15.49741 35959 ft 441 kts 318°
2026-05-06 12:29 45.68266 15.44620 35957 ft 441 kts 318°
2026-05-06 12:29 45.73255 15.39500 35958 ft 441 kts 318°
2026-05-06 12:30 45.78242 15.34366 35957 ft 441 kts 318°
2026-05-06 12:30 45.83156 15.29188 35960 ft 441 kts 317°
2026-05-06 12:31 45.88075 15.23918 35961 ft 440 kts 317°
2026-05-06 12:31 45.92991 15.18657 35959 ft 440 kts 317°
2026-05-06 12:32 45.97915 15.13395 35979 ft 441 kts 317°
2026-05-06 12:32 46.03534 15.07391 35973 ft 441 kts 317°
2026-05-06 12:33 46.08446 15.02111 35967 ft 440 kts 317°
2026-05-06 12:33 46.13326 14.96855 35964 ft 441 kts 317°
2026-05-06 12:34 46.18243 14.91558 35965 ft 441 kts 317°
2026-05-06 12:34 46.23158 14.86258 35976 ft 440 kts 317°
2026-05-06 12:35 46.28060 14.80947 35972 ft 439 kts 317°
2026-05-06 12:35 46.32120 14.76528 35970 ft 439 kts 317°
2026-05-06 12:36 46.37004 14.71219 35963 ft 439 kts 317°
2026-05-06 12:36 46.41892 14.65896 35950 ft 439 kts 317°
2026-05-06 12:37 46.46726 14.60590 35950 ft 438 kts 316°
2026-05-06 12:37 46.51495 14.55080 35927 ft 437 kts 315°
2026-05-06 12:38 46.56218 14.49487 35912 ft 438 kts 315°
2026-05-06 12:38 46.60957 14.43915 35900 ft 438 kts 315°
2026-05-06 12:39 46.65714 14.38362 35897 ft 438 kts 315°
2026-05-06 12:39 46.70462 14.32817 35933 ft 438 kts 315°
2026-05-06 12:40 46.75201 14.27243 35922 ft 437 kts 315°
2026-05-06 12:40 46.79899 14.21695 35915 ft 437 kts 315°
2026-05-06 12:41 46.84635 14.16115 35906 ft 436 kts 315°
2026-05-06 12:41 46.89351 14.10537 35903 ft 437 kts 314°
2026-05-06 12:42 46.94069 14.04935 35918 ft 436 kts 314°
2026-05-06 12:42 46.98778 13.99332 35915 ft 435 kts 314°
2026-05-06 12:43 47.03485 13.93734 35890 ft 435 kts 314°
2026-05-06 12:43 47.08187 13.88116 35886 ft 436 kts 314°
2026-05-06 12:44 47.12853 13.82533 35880 ft 436 kts 314°
2026-05-06 12:44 47.17554 13.76892 35864 ft 436 kts 313°
2026-05-06 12:45 47.22265 13.71225 35887 ft 437 kts 313°
2026-05-06 12:46 47.29343 13.62675 35835 ft 439 kts 313°
2026-05-06 12:46 47.31678 13.59858 35696 ft 439 kts 313°
2026-05-06 12:46 47.34042 13.57002 35056 ft 440 kts 312°
2026-05-06 12:46 47.36404 13.54142 34367 ft 439 kts 312°
2026-05-06 12:47 47.38770 13.51268 33628 ft 440 kts 311°
2026-05-06 12:47 47.41136 13.48383 32897 ft 441 kts 311°
2026-05-06 12:47 47.43500 13.45498 32154 ft 442 kts 312°
2026-05-06 12:47 47.45881 13.42590 31380 ft 444 kts 312°
2026-05-06 12:48 47.48274 13.39671 30587 ft 446 kts 312°
2026-05-06 12:48 47.50681 13.36743 29760 ft 449 kts 313°
2026-05-06 12:48 47.53097 13.33818 28926 ft 448 kts 313°
2026-05-06 12:48 47.55504 13.30917 28205 ft 443 kts 314°
2026-05-06 12:49 47.57892 13.28038 27556 ft 440 kts 314°
2026-05-06 12:49 47.60224 13.25214 26922 ft 437 kts 314°
2026-05-06 12:49 47.62570 13.22361 26264 ft 434 kts 314°
2026-05-06 12:49 47.64896 13.19530 25610 ft 431 kts 314°
2026-05-06 12:50 47.67205 13.16717 24982 ft 428 kts 314°
2026-05-06 12:50 47.69502 13.13916 24382 ft 426 kts 314°
2026-05-06 12:50 47.71782 13.11127 23798 ft 424 kts 314°
2026-05-06 12:50 47.74050 13.08347 23158 ft 422 kts 314°
2026-05-06 12:51 47.76154 13.05767 22535 ft 420 kts 314°
2026-05-06 12:51 47.78318 13.03114 21935 ft 416 kts 314°
2026-05-06 12:51 47.80548 13.00378 21338 ft 413 kts 314°
2026-05-06 12:51 47.82759 12.97664 20766 ft 410 kts 314°
2026-05-06 12:52 47.84944 12.94973 20221 ft 407 kts 315°
2026-05-06 12:52 47.87124 12.92284 19679 ft 404 kts 315°
2026-05-06 12:52 47.89286 12.89619 19142 ft 402 kts 315°
2026-05-06 12:52 47.91407 12.87005 18620 ft 399 kts 315°
2026-05-06 12:53 47.93537 12.84372 18101 ft 396 kts 315°
2026-05-06 12:53 47.95470 12.81496 17516 ft 388 kts 305°
2026-05-06 12:53 47.97031 12.78267 16957 ft 380 kts 296°
2026-05-06 12:53 47.98366 12.74890 16380 ft 377 kts 295°
2026-05-06 12:54 47.99695 12.71537 15813 ft 373 kts 296°
2026-05-06 12:54 48.01016 12.68212 15281 ft 370 kts 296°
2026-05-06 12:54 48.02323 12.64925 14746 ft 366 kts 295°
2026-05-06 12:54 48.03614 12.61670 14237 ft 363 kts 295°
2026-05-06 12:55 48.04894 12.58434 13726 ft 359 kts 295°
2026-05-06 12:55 48.06159 12.55238 13324 ft 355 kts 295°
2026-05-06 12:55 48.07428 12.52047 13051 ft 357 kts 296°
2026-05-06 12:55 48.08683 12.48908 12803 ft 356 kts 296°
2026-05-06 12:56 48.09954 12.45732 12544 ft 355 kts 296°
2026-05-06 12:56 48.11171 12.42534 12280 ft 350 kts 289°
2026-05-06 12:56 48.11798 12.39079 12026 ft 343 kts 276°
2026-05-06 12:56 48.12180 12.35562 11767 ft 342 kts 275°
2026-05-06 12:57 48.12547 12.32052 11513 ft 341 kts 275°
2026-05-06 12:57 48.12909 12.28548 11261 ft 340 kts 275°
2026-05-06 12:57 48.13265 12.25057 11013 ft 339 kts 275°
2026-05-06 12:57 48.13617 12.21573 10765 ft 338 kts 275°
2026-05-06 12:58 48.13968 12.18097 10448 ft 337 kts 275°
2026-05-06 12:58 48.14313 12.14639 10086 ft 332 kts 275°
2026-05-06 12:58 48.14644 12.11336 9846 ft 309 kts 275°
2026-05-06 12:58 48.14958 12.08272 9684 ft 288 kts 275°
2026-05-06 12:59 48.15261 12.05353 9427 ft 281 kts 275°
2026-05-06 12:59 48.15553 12.02493 9181 ft 281 kts 275°
2026-05-06 12:59 48.15839 11.99603 8922 ft 282 kts 275°
2026-05-06 12:59 48.16118 11.96687 8664 ft 282 kts 275°
2026-05-06 13:00 48.16392 11.93788 8407 ft 281 kts 275°
2026-05-06 13:00 48.16663 11.90891 8153 ft 281 kts 275°
2026-05-06 13:00 48.16932 11.87999 7906 ft 279 kts 275°
2026-05-06 13:00 48.17194 11.85172 7647 ft 267 kts 275°
2026-05-06 13:01 48.17445 11.82492 7396 ft 254 kts 275°
2026-05-06 13:01 48.17681 11.79937 7151 ft 247 kts 275°
2026-05-06 13:01 48.17914 11.77393 6913 ft 246 kts 275°
2026-05-06 13:01 48.18144 11.74858 6681 ft 245 kts 275°
2026-05-06 13:02 48.18367 11.72324 6486 ft 245 kts 274°
2026-05-06 13:02 48.18588 11.69796 6294 ft 244 kts 275°
2026-05-06 13:02 48.18806 11.67275 6135 ft 244 kts 275°
2026-05-06 13:02 48.19020 11.64754 5967 ft 244 kts 275°
2026-05-06 13:03 48.19225 11.62225 5790 ft 244 kts 275°
2026-05-06 13:03 48.19424 11.59703 5639 ft 244 kts 275°
2026-05-06 13:03 48.19615 11.57165 5505 ft 245 kts 275°
2026-05-06 13:03 48.19797 11.54624 5378 ft 245 kts 274°
2026-05-06 13:04 48.20003 11.52105 5254 ft 239 kts 282°
2026-05-06 13:04 48.20763 11.49992 5113 ft 226 kts 317°
2026-05-06 13:04 48.22081 11.48829 5000 ft 217 kts 340°
2026-05-06 13:04 48.23495 11.48107 4873 ft 213 kts 343°
2026-05-06 13:05 48.24908 11.47452 4751 ft 212 kts 344°
2026-05-06 13:05 48.26330 11.46940 4619 ft 209 kts
2026-05-06 13:05 48.27679 11.47521 4504 ft 201 kts 39°
2026-05-06 13:05 48.28660 11.48998 4463 ft 201 kts 52°
2026-05-06 13:06 48.29525 11.50640 4403 ft 201 kts 54°
2026-05-06 13:06 48.30372 11.52308 4333 ft 201 kts 54°
2026-05-06 13:06 48.31216 11.53979 4240 ft 200 kts 54°
2026-05-06 13:06 48.32046 11.55623 4062 ft 199 kts 54°
2026-05-06 13:07 48.32663 11.57473 3822 ft 200 kts 78°
2026-05-06 13:07 48.32854 11.59561 3574 ft 213 kts 83°
2026-05-06 13:07 48.33024 11.61779 3281 ft 208 kts 83°
2026-05-06 13:07 48.33187 11.63870 3020 ft 196 kts 82°
2026-05-06 13:08 48.33342 11.65851 2789 ft 184 kts 83°
2026-05-06 13:08 48.33484 11.67656 2564 ft 161 kts 83°
2026-05-06 13:08 48.33608 11.69238 2321 ft 145 kts 82°
2026-05-06 13:08 48.33722 11.70700 2125 ft 139 kts 81°
2026-05-06 13:09 48.33833 11.72121 1937 ft 138 kts 80°
2026-05-06 13:09 48.33945 11.73560 1754 ft 139 kts 80°
2026-05-06 13:09 48.34058 11.75013 1565 ft 140 kts 81°
2026-05-06 13:09 48.34167 11.76389 1486 ft 118 kts 83°
2026-05-06 13:10 48.34243 11.77363 1485 ft 69 kts 83°
2026-05-06 13:10 48.34282 11.77870 1485 ft 40 kts 83°
2026-05-06 13:10 48.34312 11.78150 1483 ft 17 kts 72°
2026-05-06 13:10 48.34361 11.78320 1477 ft 18 kts 58°
2026-05-06 13:11 48.34441 11.78479 1478 ft 18 kts 52°
2026-05-06 13:11 48.34501 11.78598 1478 ft 15 kts 54°
2026-05-06 13:11 48.34554 11.78710 1479 ft 14 kts 54°
2026-05-06 13:11 48.34615 11.78834 1478 ft 16 kts 56°
2026-05-06 13:12 48.34640 11.79007 1479 ft 18 kts 83°
2026-05-06 13:12 48.34655 11.79204 1478 ft 18 kts 84°
2026-05-06 13:12 48.34670 11.79400 1483 ft 19 kts 83°
2026-05-06 13:12 48.34686 11.79597 1483 ft 17 kts 83°
2026-05-06 13:13 48.34713 11.79711 1474 ft 10 kts 30°
2026-05-06 13:13 48.34744 11.79713 1477 ft 0 kts 353°
2026-05-06 13:14 48.34753 11.79711 1482 ft 4 kts 353°
2026-05-06 13:14 48.34794 11.79704 1480 ft 8 kts 353°
2026-05-06 13:14 48.34856 11.79694 1481 ft 10 kts 353°
2026-05-06 13:15 48.34936 11.79680 1479 ft 12 kts 353°
2026-05-06 13:15 48.34983 11.79672 1485 ft 8 kts 353°
2026-05-06 13:15 48.35043 11.79661 1476 ft 10 kts 353°
2026-05-06 13:15 48.35101 11.79716 1479 ft 12 kts 75°
2026-05-06 13:16 48.35113 11.79855 1482 ft 15 kts 83°
2026-05-06 13:16 48.35125 11.80011 1480 ft 16 kts 83°
2026-05-06 13:16 48.35139 11.80166 1485 ft 11 kts 68°
2026-05-06 13:16 48.35214 11.80184 1483 ft 13 kts 353°
2026-05-06 13:17 48.35312 11.80168 1481 ft 15 kts 353°
2026-05-06 13:17 48.35393 11.80149 1481 ft 10 kts 340°
2026-05-06 13:17 48.35461 11.80130 1485 ft 7 kts 346°
2026-05-06 13:17 48.35469 11.80061 1485 ft 8 kts 263°
2026-05-06 13:18 48.35467 11.80042 1485 ft 1 kts 263°
2026-05-06 13:18 48.35466 11.80022 1485 ft 3 kts 263°
2026-05-06 13:18 48.35465 11.80014 1485 ft 0 kts 263°